Regional Weather Roundup
Issued by NWS

Home | Current Version | Previous Version | Text Only | Print | Product List | Glossary On
Versions: 1 2 3 4 5 6 7 8 9 10 11 12 13 14 15 16 17 18 19 20 21 22 23 24 25 26 27 28 29 30 31 32 33 34 35 36 37 38 39 40 41 42 43 44 45 46 47 48 49 50
000
ASUS43 KFSD 270710
RWRSD

WEATHER ROUNDUP FOR SOUTH DAKOTA
NATIONAL WEATHER SERVICE SIOUX FALLS SD
200 AM CDT MON MAR 27 2017

NOTE: "FAIR" INDICATES FEW OR NO CLOUDS BELOW 12,000 FEET WITH NO
SIGNIFICANT WEATHER AND/OR OBSTRUCTIONS TO VISIBILITY.


SDZ001>005-009-010-012>017-270800-
NORTHWEST AND NORTH CENTRAL SOUTH DAKOTA

CITY           SKY/WX    TMP DP  RH WIND       PRES   REMARKS
BUFFALO          N/A     40  35  83 S3        29.83F
FAITH            N/A     39  39 100 MISG      29.92S
MOBRIDGE       CLOUDY    43  36  76 SE7       29.90F
$$

SDZ012>016-024>037-041>051-057-063-072>074-270800-
SOUTHWEST AND SOUTH CENTRAL SOUTH DAKOTA

CITY           SKY/WX    TMP DP  RH WIND       PRES   REMARKS
RAPID CTY ARPT FOG       34  34 100 CALM      29.92F VSB 1/4
PIERRE         CLOUDY    40  37  89 S3        29.93F
CUSTER         CLOUDY    31  28  89 W3        29.91F
ELLSWORTH AFB  CLOUDY    32  32 100 W5        29.91  WCI  27
PHILIP         CLOUDY    38  36  92 W3        29.94S
PINE RIDGE     CLOUDY    42  40  92 CALM      29.93F
SPEARFISH      FAIR      34  32  93 S5        29.91F WCI  30
WINNER         FAIR      37  34  89 S7        29.94F
$$

SDZ004>011-016>023-039-040-270800-
NORTHEAST SOUTH DAKOTA

CITY           SKY/WX    TMP DP  RH WIND       PRES   REMARKS
ABERDEEN       CLOUDY    38  34  85 SW3       29.96F
WATERTOWN      CLOUDY    34  34 100 CALM      29.93F FOG
BROOKINGS      CLOUDY    35  34  96 CALM      29.94F FOG
SISSETON         N/A     38  36  92 W5        29.94F
$$

SDZ017-020-022-023-036>040-048>070-270800-
SOUTHEAST SOUTH DAKOTA

CITY           SKY/WX    TMP DP  RH WIND       PRES   REMARKS
SIOUX FALLS    CLOUDY    43  39  86 NW3       29.96R
HURON          CLOUDY    38  37  97 CALM      29.95S
CHAMBERLAIN    FOG       32  32 100 SW3       29.96S VSB 1/2
MITCHELL       CLOUDY    37  36  96 S5        29.96F
YANKTON        CLOUDY    43  39  87 CALM      29.96R
$$

ABBREVIATIONS USED IN REMARKS
   TC - TEMPERATURE IN CELSIUS
  WCI - WIND CHILL INDEX
   HX - HEAT INDEX
  VSB - VISIBILITY





USA.gov is the U.S. government's official web portal to all federal, state and local government web resources and services.